Location: Unspecified
(45.2733°N, 0.0000°E)
Time: 00:05:29
(UTC+00:00)

Envisat - Visible Passes

Search period start: 16 October 2019 00:00
Search period end: 26 October 2019 00:00
Orbit: 764 x 766 km, 98.1° (Epoch: 15 October)

Date Brightness Start Highest point End Pass type
(mag) Time Alt. Az. Time Alt. Az. Time Alt. Az.
16 Oct 6.7 05:27:14 10° ENE 05:28:18 11° E 05:29:22 10° E visible
16 Oct 3.6 18:19:37 10° S 18:24:37 61° WSW 18:29:41 10° NNW visible
17 Oct 3.0 17:42:52 10° SSE 17:47:52 64° ENE 17:52:55 10° N visible
17 Oct 5.8 19:24:04 10° SW 19:27:21 17° W 19:30:39 10° NW visible
18 Oct 4.6 18:45:36 10° SSW 18:50:15 36° W 18:54:56 10° NNW visible
19 Oct 3.2 18:08:16 10° S 18:13:21 77° WSW 18:18:28 10° NNW visible
20 Oct 3.2 17:31:45 10° SE 17:36:39 51° ENE 17:41:35 10° N visible
20 Oct 5.5 19:12:08 10° SW 19:15:57 21° W 19:19:49 10° NW visible
21 Oct 6.2 05:39:52 10° NE 05:42:45 15° E 05:45:38 10° ESE visible
21 Oct 4.2 18:34:05 10° S 18:38:55 45° W 18:43:48 10° NNW visible
22 Oct 3.0 17:57:00 10° SSE 18:02:05 86° E 18:07:12 10° NNW visible
22 Oct 6.1 19:39:44 10° WSW 19:41:47 12° W 19:43:51 10° WNW visible
23 Oct 5.2 19:00:21 10° SSW 19:04:36 26° W 19:08:52 10° NW visible
24 Oct 6.5 05:29:31 10° ENE 05:31:20 12° E 05:33:09 10° ESE visible
24 Oct 3.7 18:22:38 10° S 18:27:37 56° W 18:32:38 10° NNW visible
25 Oct 2.9 17:45:48 10° SSE 17:50:50 70° ENE 17:55:55 10° N visible
25 Oct 5.9 19:27:22 10° SW 19:30:22 16° W 19:33:24 10° NW visible
